Overview Statistics Trail Chart Weather Telemetry Raw packets
 

This is the latest recevied weather packets stored in our database for station/object DG6YGE-6. If no packets are shown the sender has not sent any weather packets the latest 10 day(s).

<< 12 13 14 15 16 17 18 >>
Time Temp. Humidity Pressure Rain* Wind** Luminosity Snow
1788463151 20.56° C 77% 1014.6 hPa 0 mm - 0 W/m² -
1788462551 20.56° C 77% 1014.6 hPa 0 mm - 0 W/m² -
1788461951 20.56° C 77% 1014.8 hPa 0 mm - 0 W/m² -
1788461351 20.56° C 78% 1015 hPa 0 mm - 0 W/m² -
1788460751 20.56° C 78% 1014.7 hPa 0 mm - 0 W/m² -
1788460151 21.11° C 77% 1014.8 hPa 0 mm - 0 W/m² -
1788459551 21.11° C 77% 1014.7 hPa 0 mm - 0 W/m² -
1788458951 21.11° C 77% 1014.5 hPa 0 mm - 2 W/m² -
1788458351 21.11° C 77% 1014.4 hPa 0 mm - 13 W/m² -
1788457751 21.11° C 77% 1014.3 hPa 0 mm - 21 W/m² -
1788457151 21.11° C 78% 1014.2 hPa 0 mm - 38 W/m² -
1788456551 21.11° C 79% 1014.2 hPa 0 mm - 47 W/m² -
1788455951 21.11° C 80% 1014.1 hPa 0 mm - 44 W/m² -
1788455351 21.11° C 80% 1014 hPa 0 mm - 49 W/m² -
1788454751 21.11° C 80% 1014.1 hPa 0 mm - 53 W/m² -
1788454151 21.11° C 80% 1014.1 hPa 0 mm - 65 W/m² -
1788453551 21.11° C 80% 1014.1 hPa 0 mm - 64 W/m² -
1788452951 21.67° C 80% 1014.1 hPa 0 mm - 198 W/m² -
1788452351 21.67° C 80% 1014.1 hPa 0 mm - 82 W/m² -
1788451751 21.67° C 80% 1013.9 hPa 0 mm - 92 W/m² -
1788451151 21.67° C 80% 1013.9 hPa 0 mm - 270 W/m² -
1788450551 21.67° C 80% 1014 hPa 0 mm - 167 W/m² -
1788449951 21.11° C 81% 1014 hPa 0 mm - 207 W/m² -
1788449351 21.11° C 81% 1014.1 hPa 0 mm - 144 W/m² -
1788448751 21.11° C 81% 1014 hPa 0 mm - 156 W/m² -

* Rain latest hour (hover to see other rain measurements)
** Current wind speed in m/s (hover to see current wind gust speed)